Weather in Derevyansk

Russia / Komi Republic     61°45′26″N   53°20′05″E
temp.,
°C
wind,
m/s
gust,
m/s
humid.,
%
clouds,
%
prec.,
mm/h
press.,
hPa
HPBL,
m
22 june, tue
tue2200:00+15nw119312 0.0 101521
03:00+14nnw229536 0.0 101641
06:00+20nnw36735 0.0 1017406
09:00+25nnw47400 0.0 10171214
12:00+28nnw36370 0.0 10161498
15:00+28nnw254528 0.0 1015919
18:00+19ese239485 5.6 101690
21:00+18ese269748 5.8 1016183
23 june, wed
wed2300:00+14e259691 0.4 1018162
03:00+13ese269576 0.4 1019181
06:00+16ese348047 0.0 1019310
09:00+22ese225290 0.0 1019796
12:00+27sse114355 0.0 10181291
15:00+28nw13415 0.0 10181739
18:00+28nnw11495 0.0 1016320
21:00+20wnw2489100 0.7 101681
24 june, thu
thu2400:00+18sse119598 0.0 101620
03:00+17sw1192100 0.0 101512
06:00+20w258355 0.4 1015336
09:00+26wnw355960 0.4 10141004
12:00+29nw35436 0.0 10121900
15:00+24nnw226698 0.2 101356
18:00+27n245339 0.1 1012925
21:00+21sse228110 0.1 101319
25 june, fri
fri2500:00+18sse25910 0.0 1013101
03:00+18ssw289245 0.0 1012179
06:00+24sw49645 0.0 1011531
09:00+28w48505 0.0 10091152
12:00+31wnw5103641 0.0 10082612
15:00+30nnw6941100 0.0 10082095
18:00+27nnw494951 0.0 10081782
21:00+20nne378234 0.0 1010460
26 june, sat
sat2600:00+15n379127 0.0 1011371
03:00+13n3790100 0.0 1012379
06:00+16n3572100 0.0 1012644
09:00+20n345498 0.0 10121108
12:00+23nne334467 0.0 10121817
15:00+21ne445293 0.0 10121009
18:00+19ne44625 0.0 1013962
21:00+14ne12927 0.0 101316